contact:dominique.lefevre@mio.osupytheas.fr, maurice.libes@osupytheas.fr, didier.mallarino@osupytheas.fr
Project:EMSO http://www.emso-fr.org/EMSO-France
Depth: 2436.0 m
Title:EMSO Ligure Ouest : Data MII capteur AQUADOPP
Date,Latitude,Longitude,X_East,Y_North,Z_Up,Amplitude_X,Amplitude_Y,Amplitude_Z,Batterie,SoundSpeed,Heading,Pitch,Roll,Pressure,TIS,Speed,Direction
, degrees North, degrees East, m.s-1, m.s-1,m.s-1, 1, 1, 1, Volt, m.s-1, degree, degree, degree, dbar, degree_C, m.s-1, degree
2022-02-11T00:04:03,42.805,6.029,0.031,-0.011,-0.013,105.0,105.0,102.0,13.4,1505.2,326.8,-0.7,1.8,2470.68,13.28,0.032,109.5
2022-02-11T00:07:03,42.805,6.029,0.045,-0.031,0.033,105.0,106.0,103.0,13.4,1505.2,331.2,-0.8,1.8,2470.688,13.28,0.054,124.6
2022-02-11T00:10:03,42.805,6.029,0.065,-0.003,0.052,105.0,106.0,103.0,13.4,1505.2,328.5,-0.8,1.8,2470.659,13.28,0.065,92.6
2022-02-11T00:13:03,42.805,6.029,0.051,-0.01,0.011,106.0,104.0,103.0,13.4,1505.2,325.9,-0.7,1.8,2470.654,13.28,0.051,101.1
2022-02-11T00:16:03,42.805,6.029,0.051,-0.001,0.014,106.0,105.0,102.0,13.4,1505.2,324.9,-0.7,1.8,2470.7,13.28,0.051,91.1
2022-02-11T00:19:03,42.805,6.029,0.042,-0.017,0.018,105.0,106.0,102.0,13.4,1505.2,328.8,-0.8,1.8,2470.661,13.28,0.045,112.0
2022-02-11T00:22:03,42.805,6.029,0.015,-0.022,-0.001,106.0,106.0,102.0,13.4,1505.2,325.5,-0.8,1.8,2470.635,13.28,0.026,145.7
2022-02-11T00:25:03,42.805,6.029,0.032,-0.015,0.0,104.0,105.0,103.0,13.3,1505.2,323.7,-0.8,1.8,2470.677,13.28,0.035,115.1
2022-02-11T00:28:03,42.805,6.029,0.057,-0.021,-0.006,105.0,105.0,103.0,13.3,1505.2,327.3,-0.7,1.8,2470.668,13.28,0.06,110.2
2022-02-11T00:31:03,42.805,6.029,0.046,-0.009,0.024,105.0,105.0,102.0,13.3,1505.2,330.4,-0.7,1.8,2470.677,13.28,0.046,101.1
2022-02-11T00:34:03,42.805,6.029,0.072,-0.029,0.028,103.0,106.0,103.0,13.4,1505.2,325.8,-0.7,1.8,2470.666,13.28,0.077,111.9
2022-02-11T00:37:03,42.805,6.029,0.029,0.0,0.022,104.0,105.0,102.0,13.4,1505.2,329.4,-0.7,1.8,2470.673,13.28,0.028,90.0
2022-02-11T00:40:03,42.805,6.029,0.049,0.002,0.045,103.0,103.0,102.0,13.4,1505.2,324.4,-0.7,1.8,2470.694,13.28,0.049,87.7
2022-02-11T00:43:03,42.805,6.029,0.03,-0.018,-0.019,104.0,104.0,103.0,13.3,1505.2,324.1,-0.8,1.8,2470.695,13.28,0.034,121.0
2022-02-11T00:46:03,42.805,6.029,0.034,0.001,0.001,103.0,105.0,102.0,13.4,1505.2,327.8,-0.8,1.8,2470.675,13.28,0.034,88.3
2022-02-11T00:49:03,42.805,6.029,0.035,-0.009,-0.003,104.0,105.0,102.0,13.4,1505.2,327.4,-0.8,1.8,2470.693,13.28,0.036,104.4
2022-02-11T00:52:03,42.805,6.029,0.043,-0.033,-0.009,104.0,105.0,102.0,13.4,1505.2,329.8,-0.8,1.8,2470.649,13.28,0.054,127.5
2022-02-11T00:55:03,42.805,6.029,0.058,-0.023,0.018,104.0,105.0,101.0,13.3,1505.2,329.8,-0.7,1.8,2470.668,13.28,0.062,111.6
2022-02-11T00:58:03,42.805,6.029,0.033,-0.012,-0.007,104.0,104.0,103.0,13.3,1505.2,328.8,-0.7,1.8,2470.722,13.28,0.035,110.0
2022-02-11T01:04:03,42.805,6.029,0.019,0.02,0.036,106.0,106.0,104.0,13.4,1505.2,324.3,-0.8,1.8,2470.714,13.28,0.027,43.5
2022-02-11T01:07:03,42.805,6.029,0.03,-0.016,-0.005,103.0,106.0,101.0,13.4,1505.2,323.4,-0.8,1.8,2470.721,13.28,0.034,118.1
2022-02-11T01:10:03,42.805,6.029,0.065,-0.014,0.028,104.0,104.0,101.0,13.3,1505.2,326.7,-0.7,1.8,2470.72,13.28,0.066,102.2
2022-02-11T01:13:03,42.805,6.029,0.038,-0.017,0.031,105.0,106.0,102.0,13.3,1505.2,327.5,-0.8,1.8,2470.69,13.28,0.041,114.1
2022-02-11T01:16:03,42.805,6.029,0.039,-0.012,0.014,104.0,104.0,102.0,13.4,1505.2,329.1,-0.7,1.9,2470.675,13.28,0.04,107.1
2022-02-11T01:19:03,42.805,6.029,0.03,-0.02,-0.017,103.0,104.0,101.0,13.4,1505.2,329.1,-0.8,1.8,2470.667,13.28,0.036,123.7
2022-02-11T01:22:03,42.805,6.029,0.028,-0.02,-0.02,104.0,103.0,103.0,13.3,1505.2,325.2,-0.8,1.8,2470.672,13.28,0.034,125.5
2022-02-11T01:25:03,42.805,6.029,0.015,-0.014,0.021,103.0,107.0,103.0,13.4,1505.2,324.9,-0.7,1.8,2470.69,13.28,0.02,133.0
2022-02-11T01:28:03,42.805,6.029,0.038,-0.017,0.005,103.0,105.0,102.0,13.3,1505.2,325.4,-0.7,1.8,2470.672,13.28,0.041,114.1
2022-02-11T01:31:03,42.805,6.029,0.045,-0.014,-0.006,102.0,106.0,102.0,13.3,1505.2,327.9,-0.8,1.8,2470.73,13.28,0.047,107.3
2022-02-11T01:34:03,42.805,6.029,0.023,0.02,0.023,103.0,104.0,102.0,13.4,1505.2,325.4,-0.7,1.9,2470.712,13.28,0.03,49.0
2022-02-11T01:37:03,42.805,6.029,0.048,-0.024,0.011,102.0,104.0,102.0,13.4,1505.2,328.9,-0.8,1.8,2470.693,13.28,0.053,116.6
2022-02-11T01:40:03,42.805,6.029,0.032,-0.025,-0.001,103.0,103.0,102.0,13.4,1505.2,325.2,-0.7,1.8,2470.676,13.28,0.04,128.0
2022-02-11T01:43:03,42.805,6.029,0.033,-0.017,0.004,103.0,103.0,103.0,13.4,1505.2,329.4,-0.7,1.8,2470.695,13.28,0.037,117.3
2022-02-11T01:46:03,42.805,6.029,0.035,-0.007,0.031,105.0,104.0,102.0,13.3,1505.2,323.3,-0.7,1.8,2470.703,13.28,0.035,101.3
2022-02-11T01:49:03,42.805,6.029,0.025,-0.004,-0.001,103.0,104.0,102.0,13.4,1505.2,331.3,-0.7,1.8,2470.733,13.28,0.025,99.1
2022-02-11T01:52:03,42.805,6.029,0.053,-0.026,-0.013,103.0,104.0,102.0,13.4,1505.2,328.8,-0.8,1.8,2470.719,13.28,0.059,116.1
2022-02-11T01:55:03,42.805,6.029,0.022,-0.017,0.0,104.0,104.0,100.0,13.4,1505.2,325.6,-0.8,1.8,2470.681,13.28,0.027,127.7
2022-02-11T01:58:03,42.805,6.029,0.04,-0.013,0.005,104.0,103.0,101.0,13.4,1505.2,327.4,-0.8,1.8,2470.722,13.28,0.042,108.0
2022-02-11T02:04:03,42.805,6.029,0.04,-0.007,0.036,103.0,104.0,102.0,13.4,1505.2,326.9,-0.8,1.8,2470.755,13.28,0.04,99.9
2022-02-11T02:07:03,42.805,6.029,0.05,-0.022,0.015,103.0,105.0,102.0,13.3,1505.2,328.6,-0.7,1.8,2470.723,13.28,0.054,113.7
2022-02-11T02:10:03,42.805,6.029,0.044,-0.005,0.004,104.0,104.0,101.0,13.4,1505.2,325.5,-0.8,1.8,2470.732,13.28,0.044,96.5
2022-02-11T02:13:03,42.805,6.029,0.04,-0.018,0.007,103.0,104.0,102.0,13.4,1505.2,327.6,-0.8,1.9,2470.76,13.28,0.043,114.2
2022-02-11T02:16:03,42.805,6.029,0.032,-0.024,0.029,102.0,105.0,101.0,13.4,1505.2,329.4,-0.7,1.9,2470.739,13.28,0.04,126.9
2022-02-11T02:19:03,42.805,6.029,0.013,-0.008,-0.011,103.0,104.0,101.0,13.4,1505.2,331.5,-0.7,1.8,2470.722,13.28,0.015,121.6
2022-02-11T02:22:03,42.805,6.029,0.03,-0.01,-0.014,103.0,104.0,102.0,13.4,1505.2,323.9,-0.8,1.8,2470.733,13.28,0.031,108.4
2022-02-11T02:25:03,42.805,6.029,0.03,-0.004,0.016,103.0,104.0,103.0,13.4,1505.2,325.1,-0.8,1.8,2470.698,13.28,0.03,97.6
2022-02-11T02:28:03,42.805,6.029,0.04,-0.011,0.01,102.0,106.0,101.0,13.4,1505.2,328.3,-0.7,1.8,2470.719,13.28,0.041,105.4
2022-02-11T02:31:03,42.805,6.029,0.039,-0.02,0.007,102.0,104.0,102.0,13.4,1505.2,326.1,-0.8,1.8,2470.702,13.28,0.043,117.1
2022-02-11T02:34:03,42.805,6.029,0.035,-0.014,0.021,103.0,105.0,102.0,13.3,1505.2,329.3,-0.8,1.8,2470.746,13.28,0.037,111.8
2022-02-11T02:37:03,42.805,6.029,0.035,-0.001,-0.006,103.0,106.0,102.0,13.4,1505.2,328.6,-0.8,1.8,2470.716,13.28,0.035,91.6
2022-02-11T02:40:03,42.805,6.029,0.027,-0.025,0.007,103.0,105.0,101.0,13.4,1505.2,329.4,-0.7,1.8,2470.736,13.28,0.036,132.8
2022-02-11T02:43:03,42.805,6.029,0.035,-0.027,0.016,103.0,105.0,102.0,13.3,1505.2,323.1,-0.8,1.8,2470.729,13.28,0.044,127.7
2022-02-11T02:46:03,42.805,6.029,0.047,0.0,0.003,104.0,104.0,102.0,13.4,1505.2,329.4,-0.8,1.8,2470.745,13.28,0.047,90.0
2022-02-11T02:49:03,42.805,6.029,0.035,-0.004,0.03,103.0,104.0,102.0,13.3,1505.2,329.8,-0.8,1.8,2470.734,13.28,0.035,96.5
2022-02-11T02:52:03,42.805,6.029,0.044,-0.009,0.01,104.0,103.0,102.0,13.4,1505.2,326.5,-0.8,1.8,2470.712,13.28,0.044,101.6
2022-02-11T02:55:03,42.805,6.029,0.039,-0.006,0.002,102.0,105.0,101.0,13.4,1505.2,327.6,-0.8,1.8,2470.746,13.28,0.039,98.7
2022-02-11T02:58:03,42.805,6.029,0.04,-0.029,-0.001,102.0,106.0,100.0,13.4,1505.2,327.3,-0.7,1.8,2470.704,13.28,0.049,125.9
2022-02-11T03:04:03,42.805,6.029,0.045,-0.008,0.019,102.0,104.0,103.0,13.4,1505.2,325.7,-0.8,1.8,2470.768,13.28,0.045,100.1
2022-02-11T03:07:03,42.805,6.029,0.042,-0.02,0.022,102.0,103.0,101.0,13.3,1505.2,325.1,-0.7,1.8,2470.77,13.28,0.046,115.5
2022-02-11T03:10:03,42.805,6.029,0.049,-0.013,-0.017,103.0,105.0,102.0,13.4,1505.2,327.3,-0.8,1.9,2470.752,13.28,0.05,104.9
2022-02-11T03:13:03,42.805,6.029,0.027,-0.007,0.017,103.0,103.0,102.0,13.4,1505.2,326.9,-0.7,1.8,2470.734,13.28,0.027,104.5
2022-02-11T03:16:03,42.805,6.029,0.036,-0.016,-0.001,102.0,103.0,103.0,13.4,1505.2,326.7,-0.8,1.8,2470.72,13.28,0.039,114.0
2022-02-11T03:19:03,42.805,6.029,0.035,-0.001,0.0,104.0,103.0,103.0,13.4,1505.2,328.9,-0.7,1.8,2470.732,13.28,0.035,91.6
2022-02-11T03:22:03,42.805,6.029,0.055,0.003,0.049,104.0,103.0,102.0,13.3,1505.2,327.3,-0.8,1.8,2470.734,13.28,0.055,86.9
2022-02-11T03:25:03,42.805,6.029,0.037,-0.009,-0.004,104.0,105.0,101.0,13.4,1505.2,329.4,-0.8,1.8,2470.744,13.28,0.038,103.7
2022-02-11T03:28:03,42.805,6.029,0.039,-0.019,-0.027,103.0,103.0,102.0,13.4,1505.2,323.8,-0.7,1.8,2470.736,13.28,0.043,116.0
2022-02-11T03:31:03,42.805,6.029,0.043,-0.008,0.014,102.0,104.0,102.0,13.4,1505.2,323.6,-0.8,1.8,2470.754,13.28,0.043,100.5
2022-02-11T03:34:03,42.805,6.029,0.021,-0.033,0.001,103.0,104.0,102.0,13.4,1505.2,331.0,-0.8,1.8,2470.773,13.28,0.039,147.5
2022-02-11T03:37:03,42.805,6.029,0.02,-0.026,-0.026,102.0,105.0,101.0,13.4,1505.2,328.4,-0.7,1.8,2470.744,13.28,0.032,142.4
2022-02-11T03:40:03,42.805,6.029,0.046,0.0,0.013,102.0,104.0,102.0,13.3,1505.2,328.1,-0.8,1.8,2470.719,13.28,0.046,90.0
2022-02-11T03:43:03,42.805,6.029,0.032,-0.015,0.012,103.0,106.0,102.0,13.3,1505.2,328.3,-0.8,1.8,2470.742,13.28,0.035,115.1
2022-02-11T03:46:03,42.805,6.029,0.027,-0.025,-0.021,103.0,104.0,101.0,13.4,1505.2,324.3,-0.8,1.8,2470.743,13.28,0.036,132.8
2022-02-11T03:49:03,42.805,6.029,0.037,-0.03,0.031,103.0,103.0,102.0,13.3,1505.2,331.3,-0.7,1.8,2470.729,13.28,0.047,129.0
2022-02-11T03:52:03,42.805,6.029,0.047,-0.01,0.008,102.0,105.0,101.0,13.3,1505.2,325.7,-0.8,1.8,2470.775,13.28,0.048,102.0
2022-02-11T03:55:03,42.805,6.029,0.021,0.001,-0.015,103.0,103.0,102.0,13.4,1505.2,329.3,-0.8,1.8,2470.767,13.28,0.021,87.3
2022-02-11T03:58:03,42.805,6.029,0.048,-0.021,-0.005,102.0,105.0,102.0,13.3,1505.2,330.2,-0.8,1.8,2470.757,13.28,0.052,113.6
2022-02-11T04:04:03,42.805,6.029,0.043,-0.003,-0.006,104.0,104.0,101.0,13.4,1505.2,328.6,-0.8,1.8,2470.786,13.28,0.043,94.0
2022-02-11T04:07:03,42.805,6.029,0.037,-0.009,-0.001,103.0,107.0,101.0,13.4,1505.2,329.5,-0.8,1.8,2470.765,13.28,0.038,103.7
2022-02-11T04:10:03,42.805,6.029,0.024,-0.013,-0.007,103.0,103.0,102.0,13.4,1505.2,329.1,-0.8,1.8,2470.802,13.28,0.027,118.4
2022-02-11T04:13:03,42.805,6.029,0.04,-0.026,0.004,103.0,104.0,101.0,13.3,1505.2,323.4,-0.7,1.8,2470.753,13.28,0.047,123.0
2022-02-11T04:16:03,42.805,6.029,0.023,-0.021,-0.038,103.0,102.0,102.0,13.4,1505.2,327.4,-0.8,1.8,2470.776,13.28,0.031,132.4
2022-02-11T04:19:03,42.805,6.029,0.018,-0.022,-0.009,103.0,104.0,102.0,13.4,1505.2,329.2,-0.7,1.8,2470.773,13.28,0.028,140.7
2022-02-11T04:22:03,42.805,6.029,0.033,-0.029,-0.02,101.0,102.0,101.0,13.3,1505.2,327.5,-0.7,1.8,2470.745,13.28,0.043,131.3
2022-02-11T04:25:03,42.805,6.029,0.034,-0.005,-0.018,101.0,103.0,103.0,13.3,1505.2,326.8,-0.7,1.8,2470.744,13.28,0.034,98.4
2022-02-11T04:28:03,42.805,6.029,0.043,0.0,0.03,102.0,106.0,102.0,13.4,1505.2,325.8,-0.7,1.8,2470.75,13.28,0.043,90.0
2022-02-11T04:31:03,42.805,6.029,0.056,-0.012,0.017,102.0,104.0,102.0,13.3,1505.2,329.6,-0.7,1.8,2470.773,13.28,0.057,102.1
2022-02-11T04:34:03,42.805,6.029,0.049,-0.015,-0.004,104.0,105.0,101.0,13.4,1505.2,329.8,-0.7,1.8,2470.74,13.28,0.051,107.0
2022-02-11T04:37:03,42.805,6.029,0.031,-0.009,0.016,102.0,104.0,101.0,13.4,1505.2,325.1,-0.7,1.8,2470.757,13.28,0.032,106.2
2022-02-11T04:40:03,42.805,6.029,0.04,-0.004,-0.03,103.0,104.0,103.0,13.4,1505.2,322.8,-0.8,1.8,2470.748,13.28,0.04,95.7
2022-02-11T04:43:03,42.805,6.029,0.053,-0.028,-0.004,103.0,104.0,102.0,13.3,1505.2,327.0,-0.8,1.8,2470.746,13.28,0.059,117.9
2022-02-11T04:46:03,42.805,6.029,0.069,-0.015,0.012,103.0,106.0,101.0,13.3,1505.2,326.6,-0.8,1.8,2470.772,13.28,0.07,102.3
2022-02-11T04:49:03,42.805,6.029,0.036,0.011,0.024,103.0,105.0,101.0,13.4,1505.2,326.9,-0.7,1.8,2470.775,13.28,0.037,73.0
2022-02-11T04:52:03,42.805,6.029,0.038,-0.02,0.007,104.0,104.0,101.0,13.4,1505.2,323.4,-0.7,1.8,2470.762,13.28,0.042,117.8
2022-02-11T04:55:03,42.805,6.029,0.063,-0.01,0.026,103.0,105.0,102.0,13.4,1505.2,326.4,-0.7,1.8,2470.75,13.28,0.063,99.0
2022-02-11T04:58:03,42.805,6.029,0.071,-0.039,0.01,104.0,102.0,101.0,13.4,1505.2,327.3,-0.8,1.8,2470.733,13.28,0.081,118.8
2022-02-11T05:04:03,42.805,6.029,0.069,-0.017,0.013,104.0,104.0,102.0,13.3,1505.2,329.3,-0.8,1.8,2470.755,13.28,0.071,103.8
2022-02-11T05:07:03,42.805,6.029,0.043,0.0,0.016,103.0,104.0,102.0,13.4,1505.2,325.6,-0.8,1.8,2470.815,13.28,0.043,90.0
2022-02-11T05:10:03,42.805,6.029,0.032,-0.018,0.011,103.0,105.0,102.0,13.4,1505.2,331.9,-0.8,1.8,2470.737,13.28,0.036,119.4
2022-02-11T05:13:03,42.805,6.029,0.021,-0.011,-0.006,103.0,106.0,102.0,13.3,1505.2,326.1,-0.8,1.8,2470.746,13.28,0.023,117.6
2022-02-11T05:16:03,42.805,6.029,0.039,-0.002,0.003,104.0,105.0,102.0,13.4,1505.2,327.6,-0.8,1.8,2470.769,13.28,0.039,92.9
2022-02-11T05:19:03,42.805,6.029,0.046,0.002,-0.008,101.0,107.0,103.0,13.4,1505.2,323.1,-0.8,1.8,2470.779,13.28,0.046,87.5
2022-02-11T05:22:03,42.805,6.029,0.029,-0.01,0.019,103.0,103.0,102.0,13.3,1505.2,324.0,-0.8,1.8,2470.768,13.28,0.03,109.0
2022-02-11T05:25:03,42.805,6.029,0.026,-0.009,-0.008,102.0,104.0,102.0,13.4,1505.2,325.7,-0.8,1.8,2470.824,13.28,0.027,109.1
2022-02-11T05:28:03,42.805,6.029,0.057,-0.007,0.024,102.0,103.0,103.0,13.3,1505.2,326.7,-0.8,1.8,2470.766,13.28,0.057,97.0
2022-02-11T05:31:03,42.805,6.029,0.063,0.0,0.053,102.0,104.0,102.0,13.3,1505.2,325.8,-0.7,1.8,2470.79,13.28,0.062,90.0
2022-02-11T05:34:03,42.805,6.029,0.045,0.004,0.014,103.0,103.0,102.0,13.3,1505.2,325.1,-0.8,1.8,2470.769,13.28,0.045,84.9
2022-02-11T05:37:03,42.805,6.029,0.033,-0.001,0.012,103.0,104.0,103.0,13.4,1505.2,328.7,-0.7,1.8,2470.772,13.28,0.033,91.7
2022-02-11T05:40:03,42.805,6.029,0.046,-0.02,-0.011,103.0,104.0,101.0,13.3,1505.2,329.1,-0.7,1.8,2470.777,13.28,0.05,113.5
2022-02-11T05:43:03,42.805,6.029,0.038,-0.009,0.004,102.0,104.0,101.0,13.4,1505.2,328.9,-0.8,1.8,2470.799,13.28,0.039,103.3
2022-02-11T05:46:03,42.805,6.029,0.061,0.001,0.029,103.0,105.0,102.0,13.4,1505.2,323.7,-0.7,1.8,2470.763,13.28,0.061,89.1
2022-02-11T05:49:03,42.805,6.029,0.043,-0.01,0.022,103.0,103.0,102.0,13.4,1505.2,331.2,-0.8,1.8,2470.751,13.28,0.044,103.1
2022-02-11T05:52:03,42.805,6.029,0.038,-0.022,0.008,103.0,103.0,102.0,13.3,1505.2,330.2,-0.7,1.8,2470.792,13.28,0.043,120.1
2022-02-11T05:55:03,42.805,6.029,0.035,0.009,0.03,104.0,104.0,102.0,13.4,1505.2,326.0,-0.7,1.8,2470.767,13.28,0.036,75.6
2022-02-11T05:58:03,42.805,6.029,0.013,-0.012,-0.008,103.0,103.0,102.0,13.4,1505.2,325.7,-0.7,1.8,2470.76,13.28,0.017,132.7
2022-02-11T06:04:03,42.805,6.029,0.061,-0.006,0.019,102.0,105.0,101.0,13.4,1505.2,325.7,-0.8,1.9,2470.817,13.28,0.061,95.6
2022-02-11T06:07:03,42.805,6.029,0.06,-0.006,0.024,103.0,104.0,102.0,13.4,1505.2,326.6,-0.8,1.8,2470.769,13.28,0.06,95.7
2022-02-11T06:10:03,42.805,6.029,0.043,-0.002,0.002,103.0,104.0,103.0,13.4,1505.2,327.0,-0.7,1.8,2470.765,13.28,0.043,92.7
2022-02-11T06:13:03,42.805,6.029,0.057,-0.006,0.029,103.0,104.0,101.0,13.4,1505.2,330.8,-0.7,1.8,2470.79,13.28,0.057,96.0
2022-02-11T06:16:03,42.805,6.029,0.029,-0.014,-0.004,103.0,102.0,101.0,13.3,1505.2,326.7,-0.7,1.8,2470.736,13.28,0.032,115.8
2022-02-11T06:19:03,42.805,6.029,0.063,-0.009,0.007,102.0,103.0,102.0,13.4,1505.2,328.7,-0.7,1.8,2470.738,13.28,0.063,98.1
2022-02-11T06:22:03,42.805,6.029,0.05,-0.025,0.0,103.0,104.0,102.0,13.4,1505.2,326.3,-0.8,1.8,2470.78,13.28,0.055,116.6
2022-02-11T06:25:03,42.805,6.029,0.041,0.015,0.029,103.0,105.0,102.0,13.4,1505.2,328.2,-0.8,1.8,2470.769,13.28,0.043,69.9
2022-02-11T06:28:03,42.805,6.029,0.028,-0.006,-0.002,103.0,104.0,102.0,13.3,1505.2,325.1,-0.8,1.8,2470.759,13.28,0.028,102.1
2022-02-11T06:31:03,42.805,6.029,0.029,-0.027,0.001,103.0,104.0,102.0,13.3,1505.2,330.0,-0.8,1.8,2470.737,13.28,0.039,133.0
2022-02-11T06:34:03,42.805,6.029,0.038,-0.02,-0.005,101.0,104.0,102.0,13.3,1505.2,331.8,-0.8,1.8,2470.742,13.28,0.042,117.8
2022-02-11T06:37:03,42.805,6.029,0.015,-0.008,-0.03,100.0,105.0,103.0,13.4,1505.2,329.1,-0.8,1.8,2470.732,13.28,0.017,118.1
2022-02-11T06:40:03,42.805,6.029,0.04,0.002,0.023,104.0,106.0,101.0,13.4,1505.2,325.1,-0.7,1.8,2470.81,13.28,0.04,87.1
2022-02-11T06:43:03,42.805,6.029,0.034,-0.039,-0.014,103.0,104.0,102.0,13.4,1505.2,330.2,-0.7,1.8,2470.763,13.28,0.051,138.9
2022-02-11T06:46:03,42.805,6.029,0.032,0.002,-0.008,103.0,105.0,100.0,13.4,1505.2,323.1,-0.8,1.8,2470.797,13.28,0.032,86.4
2022-02-11T06:49:03,42.805,6.029,0.04,0.001,-0.004,103.0,103.0,103.0,13.4,1505.2,323.7,-0.8,1.8,2470.748,13.28,0.04,88.6
2022-02-11T06:52:03,42.805,6.029,0.05,0.009,0.002,104.0,104.0,102.0,13.4,1505.2,323.3,-0.7,1.8,2470.707,13.28,0.05,79.8
2022-02-11T06:55:03,42.805,6.029,0.043,-0.004,-0.012,103.0,106.0,101.0,13.3,1505.2,324.2,-0.8,1.8,2470.777,13.28,0.043,95.3
2022-02-11T06:58:03,42.805,6.029,0.046,-0.023,0.012,103.0,105.0,101.0,13.4,1505.2,323.1,-0.8,1.8,2470.793,13.28,0.051,116.6
2022-02-11T07:04:03,42.805,6.029,0.034,-0.029,-0.017,103.0,104.0,102.0,13.3,1505.2,323.6,-0.8,1.8,2470.765,13.28,0.044,130.5
2022-02-11T07:07:03,42.805,6.029,0.006,0.002,0.045,103.0,104.0,102.0,13.4,1505.2,324.1,-0.8,1.8,2470.739,13.28,0.006,71.6
2022-02-11T07:10:03,42.805,6.029,0.043,0.017,-0.005,103.0,104.0,102.0,13.4,1505.2,324.6,-0.7,1.8,2470.769,13.28,0.046,68.4
2022-02-11T07:13:03,42.805,6.029,0.045,-0.024,0.004,103.0,104.0,101.0,13.3,1505.2,329.0,-0.7,1.8,2470.762,13.28,0.051,118.1
2022-02-11T07:16:03,42.805,6.029,0.046,-0.017,-0.002,103.0,105.0,102.0,13.3,1505.2,325.6,-0.8,1.9,2470.759,13.28,0.049,110.3
2022-02-11T07:19:03,42.805,6.029,0.066,-0.018,0.041,103.0,103.0,101.0,13.3,1505.2,325.5,-0.8,1.9,2470.708,13.28,0.068,105.3
2022-02-11T07:22:03,42.805,6.029,0.04,-0.042,-0.007,103.0,103.0,101.0,13.4,1505.2,324.2,-0.7,1.8,2470.712,13.28,0.057,136.4
2022-02-11T07:25:03,42.805,6.029,0.054,-0.025,0.015,104.0,103.0,101.0,13.4,1505.2,326.4,-0.8,1.8,2470.743,13.28,0.059,114.8
2022-02-11T07:28:03,42.805,6.029,0.015,-0.017,-0.018,103.0,104.0,101.0,13.3,1505.2,328.5,-0.8,1.8,2470.788,13.28,0.022,138.6
2022-02-11T07:31:03,42.805,6.029,0.045,-0.027,0.021,104.0,103.0,101.0,13.4,1505.2,328.6,-0.7,1.9,2470.776,13.28,0.052,121.0
2022-02-11T07:34:03,42.805,6.029,0.033,-0.019,0.028,102.0,103.0,102.0,13.3,1505.2,324.8,-0.8,1.8,2470.768,13.28,0.038,119.9
2022-02-11T07:37:03,42.805,6.029,0.057,-0.035,-0.016,102.0,103.0,101.0,13.3,1505.2,323.5,-0.8,1.8,2470.75,13.28,0.066,121.6
2022-02-11T07:40:03,42.805,6.029,0.02,-0.011,-0.016,102.0,103.0,101.0,13.4,1505.2,325.9,-0.7,1.8,2470.724,13.28,0.022,118.8
2022-02-11T07:43:03,42.805,6.029,0.03,-0.03,-0.019,103.0,103.0,101.0,13.3,1505.2,328.4,-0.7,1.8,2470.725,13.28,0.042,135.0
2022-02-11T07:46:03,42.805,6.029,0.063,0.006,0.043,102.0,103.0,101.0,13.4,1505.2,326.8,-0.8,1.8,2470.749,13.28,0.063,84.6
2022-02-11T07:49:03,42.805,6.029,0.041,-0.033,-0.008,101.0,103.0,101.0,13.3,1505.2,330.6,-0.7,1.8,2470.753,13.28,0.052,128.8
2022-02-11T07:52:03,42.805,6.029,0.022,-0.028,-0.024,102.0,103.0,101.0,13.4,1505.2,331.2,-0.8,1.8,2470.745,13.28,0.035,141.8
2022-02-11T07:55:03,42.805,6.029,0.056,-0.019,0.003,104.0,104.0,101.0,13.4,1505.2,324.3,-0.8,1.8,2470.744,13.28,0.059,108.7
2022-02-11T07:58:03,42.805,6.029,0.046,-0.012,0.013,102.0,103.0,102.0,13.4,1505.2,325.6,-0.8,1.8,2470.762,13.28,0.047,104.6
2022-02-11T08:04:03,42.805,6.029,0.046,-0.02,-0.001,102.0,103.0,101.0,13.4,1505.2,330.8,-0.7,1.9,2470.778,13.28,0.05,113.5
2022-02-11T08:07:03,42.805,6.029,0.037,-0.011,0.008,102.0,102.0,100.0,13.4,1505.2,331.3,-0.7,1.8,2470.752,13.28,0.038,106.6
2022-02-11T08:10:03,42.805,6.029,0.026,-0.001,0.018,102.0,104.0,100.0,13.3,1505.2,329.2,-0.8,1.8,2470.736,13.28,0.026,92.2
2022-02-11T08:13:03,42.805,6.029,0.044,-0.017,0.028,103.0,102.0,102.0,13.4,1505.2,326.0,-0.8,1.8,2470.734,13.28,0.047,111.1
2022-02-11T08:16:03,42.805,6.029,0.053,-0.042,-0.015,102.0,104.0,101.0,13.4,1505.2,329.1,-0.8,1.8,2470.72,13.28,0.067,128.4
2022-02-11T08:19:03,42.805,6.029,0.062,-0.015,0.04,103.0,103.0,102.0,13.4,1505.2,325.2,-0.8,1.8,2470.697,13.28,0.063,103.6
2022-02-11T08:22:03,42.805,6.029,0.012,-0.022,0.026,102.0,104.0,100.0,13.4,1505.2,330.7,-0.8,1.8,2470.735,13.28,0.025,151.4
2022-02-11T08:25:03,42.805,6.029,0.044,-0.017,0.02,103.0,102.0,101.0,13.4,1505.2,326.4,-0.8,1.8,2470.745,13.28,0.047,111.1
2022-02-11T08:28:03,42.805,6.029,0.028,0.002,-0.007,102.0,104.0,102.0,13.4,1505.2,329.1,-0.8,1.8,2470.717,13.28,0.028,85.9
2022-02-11T08:31:03,42.805,6.029,0.062,-0.006,0.021,102.0,103.0,101.0,13.4,1505.2,326.3,-0.8,1.8,2470.72,13.28,0.062,95.5
2022-02-11T08:34:03,42.805,6.029,0.047,-0.006,0.02,102.0,103.0,101.0,13.4,1505.2,328.5,-0.7,1.8,2470.759,13.28,0.047,97.3
2022-02-11T08:37:03,42.805,6.029,0.041,-0.02,-0.004,103.0,103.0,102.0,13.4,1505.2,329.0,-0.8,1.8,2470.709,13.28,0.045,116.0
2022-02-11T08:40:03,42.805,6.029,0.059,-0.004,0.031,101.0,104.0,101.0,13.3,1505.2,330.2,-0.8,1.8,2470.734,13.28,0.059,93.9
2022-02-11T08:43:03,42.805,6.029,0.047,-0.025,0.024,101.0,104.0,101.0,13.4,1505.2,327.5,-0.8,1.8,2470.712,13.28,0.053,118.0
2022-02-11T08:46:03,42.805,6.029,0.053,-0.005,0.003,102.0,103.0,101.0,13.4,1505.2,325.6,-0.7,1.8,2470.736,13.28,0.053,95.4
2022-02-11T08:49:03,42.805,6.029,0.025,-0.01,0.018,103.0,103.0,101.0,13.4,1505.2,324.1,-0.7,1.8,2470.727,13.28,0.026,111.8
2022-02-11T08:52:03,42.805,6.029,0.038,-0.022,0.004,101.0,103.0,100.0,13.3,1505.2,326.5,-0.7,1.9,2470.741,13.28,0.043,120.1
2022-02-11T08:55:03,42.805,6.029,0.04,-0.031,-0.013,103.0,103.0,102.0,13.4,1505.2,329.3,-0.7,1.8,2470.734,13.28,0.05,127.8
2022-02-11T08:58:03,42.805,6.029,0.035,-0.017,-0.024,102.0,102.0,101.0,13.3,1505.2,327.6,-0.8,1.8,2470.75,13.28,0.038,115.9
2022-02-11T09:04:03,42.805,6.029,0.061,-0.012,0.02,101.0,102.0,101.0,13.4,1505.2,324.6,-0.8,1.8,2470.721,13.28,0.062,101.1
2022-02-11T09:07:03,42.805,6.029,0.041,-0.01,-0.002,101.0,103.0,101.0,13.4,1505.2,323.9,-0.8,1.8,2470.722,13.28,0.042,103.7
2022-02-11T09:10:03,42.805,6.029,0.02,-0.026,-0.008,101.0,104.0,101.0,13.4,1505.2,324.2,-0.7,1.8,2470.735,13.28,0.032,142.4
2022-02-11T09:13:03,42.805,6.029,0.045,-0.027,0.008,102.0,103.0,101.0,13.3,1505.2,327.9,-0.8,1.8,2470.738,13.28,0.052,121.0
2022-02-11T09:16:03,42.805,6.029,0.031,-0.01,-0.019,102.0,103.0,101.0,13.4,1505.2,325.6,-0.8,1.8,2470.743,13.28,0.032,107.9
2022-02-11T09:19:03,42.805,6.029,0.039,-0.019,0.003,103.0,102.0,101.0,13.3,1505.2,326.3,-0.7,1.8,2470.705,13.28,0.043,116.0
2022-02-11T09:22:03,42.805,6.029,0.031,-0.034,-0.011,102.0,103.0,100.0,13.3,1505.2,328.5,-0.7,1.8,2470.732,13.28,0.046,137.6
2022-02-11T09:25:03,42.805,6.029,0.025,0.002,-0.021,101.0,103.0,101.0,13.4,1505.2,326.4,-0.7,1.8,2470.744,13.28,0.025,85.4
2022-02-11T09:28:03,42.805,6.029,0.05,-0.041,0.001,102.0,102.0,101.0,13.4,1505.2,327.5,-0.7,1.8,2470.713,13.28,0.064,129.3
2022-02-11T09:31:03,42.805,6.029,0.049,-0.013,0.0,101.0,102.0,102.0,13.4,1505.2,326.7,-0.8,1.9,2470.707,13.28,0.05,104.9
2022-02-11T09:34:03,42.805,6.029,0.034,-0.015,0.013,101.0,104.0,101.0,13.3,1505.2,328.4,-0.8,1.8,2470.698,13.28,0.037,113.8
2022-02-11T09:37:03,42.805,6.029,0.038,-0.006,0.012,102.0,103.0,101.0,13.4,1505.2,326.2,-0.7,1.8,2470.718,13.28,0.038,99.0
2022-02-11T09:40:03,42.805,6.029,0.031,-0.021,0.019,103.0,103.0,100.0,13.4,1505.2,330.6,-0.7,1.8,2470.732,13.28,0.037,124.1
2022-02-11T09:43:03,42.805,6.029,0.035,-0.014,0.001,103.0,103.0,101.0,13.3,1505.2,324.2,-0.7,1.8,2470.72,13.28,0.037,111.8
2022-02-11T09:46:03,42.805,6.029,0.022,0.001,0.002,103.0,102.0,101.0,13.4,1505.2,325.3,-0.8,1.8,2470.683,13.28,0.022,87.4
2022-02-11T09:49:03,42.805,6.029,0.045,-0.016,0.015,103.0,104.0,100.0,13.3,1505.2,324.3,-0.8,1.8,2470.707,13.28,0.047,109.6
2022-02-11T09:52:03,42.805,6.029,0.042,-0.004,0.026,101.0,102.0,101.0,13.4,1505.2,327.0,-0.8,1.8,2470.694,13.28,0.042,95.4
2022-02-11T09:55:03,42.805,6.029,0.035,-0.019,-0.024,102.0,103.0,101.0,13.4,1505.2,329.5,-0.8,1.8,2470.732,13.28,0.039,118.5
2022-02-11T09:58:03,42.805,6.029,0.059,-0.027,0.004,102.0,103.0,101.0,13.4,1505.2,329.3,-0.8,1.8,2470.722,13.28,0.064,114.6